User: anonymous   Login
Location: B�retswil
(47.3376°N, 8.8534°E)
Time: 16:25:07
(UTC+00:00)
Language:

Cosmos 2369 Rocket - Orbit

View from above orbital plane
View from above orbital plane
View from above satellite
View from above satellite

Ground track
Ground track

The orbit data is extracted from the following two-line orbital elements,

1 26070U 00006B   21135.52349066 -.00000290  00000-0 -12365-3 0  9991
2 26070  71.0025 195.4440 0017649 331.6279  28.3881 14.15475368 99627
Epoch (UTC): 15 May 2021 12:33:49
Eccentricity: 0.0017649
inclination: 71.0025°
perigee height: 828 km
apogee height: 853 km
right ascension of ascending node: 195.4440°
argument of perigee: 331.6279°
revolutions per day: 14.15475368
mean anomaly at epoch: 28.3881°
orbit number at epoch: 9962

The dashed part of the orbit path shows where the satellite is in the earth's shadow,  

DLR